Waarnemingen

Advertentie
Mijn weer
Semmerzake, België (6428): temperatuur & dauwpunt: 11.02.2019 15:00:00 - 17.02.2019 15:00:00 (CET)Semmerzake, België (6428): windsnelheid & windstoten: 11.02.2019 15:00:00 - 17.02.2019 15:00:00 (CET)Semmerzake, België (6428): windrichting: 11.02.2019 15:00:00 - 17.02.2019 15:00:00 (CET)Semmerzake, België (6428): luchtdruk: 11.02.2019 15:00:00 - 17.02.2019 15:00:00 (CET)Semmerzake, België (6428): zicht: 11.02.2019 15:00:00 - 17.02.2019 15:00:00 (CET)
Datum & Tijd tt [°C] td [°C] ff [km/u] ff [kn] fx [km/u] fx [kn] dd ppp [hPa] vv [km]
17.02.2019 15:00:00 14,2 2,9 25 14 36 19 Z 1018,2 18
17.02.2019 14:00:00 13,7 2,8 22 12 32 18 Z 1018,8 18
17.02.2019 13:00:00 13,7 3,4 22 12 - - Z 1019,2 17
17.02.2019 12:00:00 12,3 2,7 14 8 29 16 Z 1019,8 16
17.02.2019 11:00:00 10,3 3,1 18 10 22 12 Z 1020,1 13
17.02.2019 10:00:00 8,0 1,9 14 8 - - Z 1020,6 13
17.02.2019 09:00:00 6,0 1,0 11 6 18 10 Z 1020,8 13
17.02.2019 08:00:00 5,6 0,8 11 6 18 10 ZZO 1020,8 13
17.02.2019 07:00:00 5,0 1,5 7 4 - - ZZO 1021,0 12
17.02.2019 06:00:00 5,3 2,0 11 6 18 10 ZZO 1021,5 10
17.02.2019 05:00:00 5,6 2,0 11 6 14 8 ZZO 1022,0 11
17.02.2019 04:00:00 6,0 2,1 7 4 - - ZZO 1022,5 11
17.02.2019 03:00:00 5,8 2,1 11 6 14 8 ZZO 1023,1 11
17.02.2019 02:00:00 6,2 2,1 7 4 14 8 ZZO 1023,5 13
17.02.2019 01:00:00 5,9 2,4 14 8 - - Z 1023,8 12
17.02.2019 00:00:00 6,1 2,7 11 6 14 8 Z 1024,2 11
16.02.2019 23:00:00 6,9 3,1 4 2 7 4 N 1024,7 11
16.02.2019 22:00:00 7,4 3,8 4 2 - - N 1024,9 11
16.02.2019 21:00:00 8,2 4,4 7 4 11 6 Z 1024,7 12
16.02.2019 20:00:00 8,6 4,4 7 4 11 6 Z 1025,0 12
16.02.2019 19:00:00 9,6 4,5 7 4 - - Z 1025,0 14
16.02.2019 18:00:00 11,0 5,1 7 4 11 6 Z 1025,0 13
16.02.2019 17:00:00 12,3 5,9 7 4 18 10 ZZW 1025,2 14
16.02.2019 16:00:00 13,3 5,6 11 6 - - ZZW 1025,5 18
16.02.2019 15:00:00 13,4 6,7 7 4 22 12 ZW 1025,7 19
16.02.2019 14:00:00 13,3 6,1 11 6 18 10 ZW 1026,0 13
16.02.2019 13:00:00 11,7 5,4 11 6 - - ZZW 1026,4 15
16.02.2019 12:00:00 10,1 3,6 11 6 22 12 ZZW 1026,7 16
16.02.2019 11:00:00 7,9 2,9 14 8 18 10 ZZW 1026,7 15
16.02.2019 10:00:00 6,6 2,3 11 6 - - ZZW 1026,5 12
16.02.2019 09:00:00 5,1 1,8 14 8 18 10 ZZW 1026,5 11
16.02.2019 08:00:00 4,6 1,5 14 8 22 12 Z 1026,0 12
16.02.2019 07:00:00 5,1 1,7 18 10 - - Z 1025,5 13
16.02.2019 06:00:00 5,2 1,9 14 8 22 12 Z 1025,5 13
16.02.2019 05:00:00 5,4 2,0 14 8 22 12 Z 1025,2 15
16.02.2019 04:00:00 6,3 2,2 14 8 - - ZZW 1025,5 16
16.02.2019 03:00:00 6,5 2,1 14 8 22 12 Z 1025,7 18
16.02.2019 02:00:00 6,4 2,2 11 6 22 12 ZZW 1026,5 16
16.02.2019 01:00:00 7,7 2,4 14 8 - - ZZW 1026,5 19
16.02.2019 00:00:00 7,9 2,3 18 10 25 14 Z 1026,4 19
15.02.2019 23:00:00 8,1 2,1 14 8 22 12 Z 1026,5 17
15.02.2019 22:00:00 7,6 1,8 14 8 - - Z 1026,7 20
15.02.2019 21:00:00 9,1 2,2 14 8 18 10 Z 1027,0 20
15.02.2019 20:00:00 10,4 0,6 7 4 11 6 Z 1027,4 20
15.02.2019 19:00:00 11,9 1,0 11 6 - - Z 1027,5 20
15.02.2019 18:00:00 12,7 2,4 11 6 14 8 Z 1027,4 20
15.02.2019 17:00:00 14,8 3,1 11 6 18 10 Z 1027,5 20
15.02.2019 16:00:00 15,6 3,8 11 6 - - Z 1028,0 20
15.02.2019 15:00:00 15,3 2,8 11 6 22 12 Z 1028,5 20
15.02.2019 14:00:00 14,5 2,7 11 6 22 12 ZZW 1029,5 19
15.02.2019 13:00:00 13,2 1,6 14 8 - - Z 1030,0 20
15.02.2019 12:00:00 11,6 1,1 7 4 18 10 ZZW 1030,7 20
15.02.2019 11:00:00 10,3 1,1 4 2 11 6 N 1031,0 19
15.02.2019 10:00:00 7,8 0,4 7 4 - - ZZO 1031,2 20
15.02.2019 09:00:00 5,9 -0,9 4 2 14 8 N 1031,2 19
15.02.2019 08:00:00 4,4 -1,2 11 6 18 10 Z 1031,2 20
15.02.2019 07:00:00 4,0 -1,8 4 2 - - N 1031,0 20
15.02.2019 06:00:00 3,6 -1,5 7 4 11 6 ZZO 1031,5 20
15.02.2019 05:00:00 4,0 -1,2 4 2 11 6 N 1031,4 17
15.02.2019 04:00:00 4,4 -1,1 4 2 - - N 1031,5 20
15.02.2019 03:00:00 - - - - - - - - -
15.02.2019 02:00:00 5,3 -0,6 4 2 7 4 N 1032,5 19
15.02.2019 01:00:00 5,0 0,0 4 2 - - N 1032,9 19
15.02.2019 00:00:00 6,2 0,1 4 2 7 4 N 1032,9 18
14.02.2019 23:00:00 7,3 0,4 7 4 11 6 ZZO 1032,7 20
14.02.2019 22:00:00 7,2 -0,1 7 4 - - ZO 1032,7 20
14.02.2019 21:00:00 7,7 -0,2 4 2 7 4 N 1032,7 17
14.02.2019 20:00:00 9,0 0,4 4 2 4 2 N 1032,9 18
14.02.2019 19:00:00 9,5 0,8 4 2 - - N 1033,0 19
14.02.2019 18:00:00 10,8 0,8 4 2 7 4 N 1033,0 20
14.02.2019 17:00:00 12,6 1,4 4 2 11 6 N 1033,4 15
14.02.2019 16:00:00 12,8 2,0 7 4 - - ZO 1033,7 17
14.02.2019 15:00:00 12,6 2,5 7 4 14 8 ZZO 1034,2 20
14.02.2019 14:00:00 11,8 2,1 4 2 11 6 N 1034,5 19
14.02.2019 13:00:00 10,0 2,4 7 4 - - Z 1035,2 19
14.02.2019 12:00:00 8,1 1,7 7 4 11 6 OZO 1036,2 19
14.02.2019 11:00:00 6,5 0,7 7 4 11 6 ZZO 1035,7 19
14.02.2019 10:00:00 4,4 0,1 4 2 - - N 1035,7 12
14.02.2019 09:00:00 2,0 -0,9 7 4 11 6 O 1036,2 9
14.02.2019 08:00:00 0,6 -1,0 7 4 11 6 Z 1035,5 10
14.02.2019 07:00:00 -0,5 -2,4 4 2 - - N 1035,5 8
14.02.2019 06:00:00 0,8 -1,0 4 2 7 4 N 1035,0 14
14.02.2019 05:00:00 1,1 -1,2 4 2 11 6 N 1035,2 13
14.02.2019 04:00:00 1,3 -1,5 4 2 - - N 1035,2 18
14.02.2019 03:00:00 1,8 -1,0 7 4 11 6 ZZW 1035,0 16
14.02.2019 02:00:00 2,2 -0,8 4 2 11 6 N 1035,2 18
14.02.2019 01:00:00 2,6 -0,1 7 4 - - Z 1035,5 18
14.02.2019 00:00:00 2,7 -0,1 11 6 14 8 ZZW 1035,2 16
13.02.2019 23:00:00 2,8 0,3 7 4 14 8 Z 1035,7 14
13.02.2019 22:00:00 2,7 0,7 7 4 - - Z 1035,7 10
13.02.2019 21:00:00 3,2 0,9 7 4 11 6 Z 1035,7 12
13.02.2019 20:00:00 3,4 0,9 7 4 11 6 Z 1036,0 13
13.02.2019 19:00:00 4,1 1,1 7 4 - - Z 1036,0 16
13.02.2019 18:00:00 5,3 1,6 7 4 18 10 ZZW 1035,7 19
13.02.2019 17:00:00 6,6 1,7 11 6 22 12 ZZW 1035,7 20
13.02.2019 16:00:00 7,0 1,9 14 8 - - ZZW 1035,9 18
13.02.2019 15:00:00 7,1 1,5 18 10 25 14 ZZW 1035,7 19
13.02.2019 14:00:00 6,9 1,8 14 8 25 14 ZZW 1036,2 16
13.02.2019 13:00:00 6,0 1,6 14 8 - - ZZW 1037,0 11
13.02.2019 12:00:00 5,4 1,7 11 6 25 14 Z 1037,2 16
13.02.2019 11:00:00 3,7 1,1 14 8 22 12 ZZW 1037,0 6
13.02.2019 10:00:00 3,0 0,9 11 6 - - ZZW 1037,2 6
13.02.2019 09:00:00 1,8 0,3 14 8 22 12 ZZW 1036,7 5
13.02.2019 08:00:00 2,9 0,5 14 8 25 14 ZW 1036,7 9
13.02.2019 07:00:00 3,0 1,0 14 8 - - ZZW 1036,4 8
13.02.2019 06:00:00 3,2 1,2 14 8 22 12 Z 1036,4 8
13.02.2019 05:00:00 3,6 1,3 14 8 22 12 ZZW 1036,2 9
13.02.2019 04:00:00 3,7 1,5 14 8 - - ZZW 1036,4 9
13.02.2019 03:00:00 3,7 1,7 14 8 25 14 Z 1036,5 9
13.02.2019 02:00:00 3,7 1,9 14 8 22 12 ZZW 1036,7 9
13.02.2019 01:00:00 3,4 1,7 14 8 - - ZZW 1036,7 8
13.02.2019 00:00:00 3,4 1,7 14 8 22 12 ZZW 1036,4 7
12.02.2019 23:00:00 3,6 1,9 14 8 22 12 Z 1036,2 9
12.02.2019 22:00:00 4,5 2,2 11 6 - - ZZW 1036,0 14
12.02.2019 21:00:00 5,3 2,8 11 6 18 10 ZZW 1036,0 16
12.02.2019 20:00:00 4,9 2,7 11 6 14 8 ZZW 1035,9 12
12.02.2019 19:00:00 5,8 3,0 11 6 - - ZZW 1035,5 15
12.02.2019 18:00:00 7,0 2,1 7 4 14 8 ZZW 1035,4 20
12.02.2019 17:00:00 8,2 2,2 11 6 22 12 ZW 1035,2 20
12.02.2019 16:00:00 8,9 2,2 11 6 - - WZW 1035,2 19
12.02.2019 15:00:00 8,0 3,6 11 6 22 12 ZZW 1035,0 19
12.02.2019 14:00:00 8,0 3,7 11 6 22 12 ZW 1035,2 19
12.02.2019 13:00:00 6,8 3,8 11 6 - - ZZW 1035,5 16
12.02.2019 12:00:00 4,5 2,5 11 6 18 10 ZZW 1035,7 12
12.02.2019 11:00:00 3,5 2,4 11 6 14 8 ZZW 1035,5 10
12.02.2019 10:00:00 2,1 1,6 7 4 - - Z 1035,4 5
12.02.2019 09:00:00 1,6 1,5 7 4 14 8 ZZW 1035,0 2,4
12.02.2019 08:00:00 0,6 0,6 7 4 11 6 Z 1034,4 2,1
12.02.2019 07:00:00 1,2 1,2 11 6 - - ZZW 1034,0 1,2
12.02.2019 06:00:00 0,8 0,8 7 4 11 6 ZZW 1034,0 1,7
12.02.2019 05:00:00 0,8 0,7 7 4 11 6 ZZW 1034,2 1,6
12.02.2019 04:00:00 0,8 0,7 7 4 - - N 1034,4 0,3
12.02.2019 03:00:00 1,5 1,4 4 2 7 4 N 1034,4 1,7
12.02.2019 02:00:00 1,5 1,5 4 2 11 6 - 1034,2 1,4
12.02.2019 01:00:00 0,8 0,7 4 2 - - N 1033,9 0,2
12.02.2019 00:00:00 1,7 1,6 4 2 7 4 N 1033,4 1,3
11.02.2019 23:00:00 2,1 2,0 4 2 7 4 N 1032,5 1,4
11.02.2019 22:00:00 2,3 2,1 4 2 - - N 1032,2 1,5
11.02.2019 21:00:00 3,0 2,3 4 2 11 6 N 1031,5 11
11.02.2019 20:00:00 4,2 3,2 4 2 11 6 N 1031,2 12
11.02.2019 19:00:00 4,5 3,1 4 2 - - N 1030,0 14
11.02.2019 18:00:00 5,5 3,3 7 4 22 12 NNW 1028,9 19
11.02.2019 17:00:00 6,3 3,0 11 6 25 14 NW 1027,7 20
11.02.2019 16:00:00 7,0 2,5 14 8 - - NW 1026,9 20
11.02.2019 15:00:00 7,2 2,7 11 6 29 16 NW 1025,5 20

tt = temperatuur
td = dauwpunt
ff = windsnelheid
fx = windstoten
dd = windrichting
ppp = luchtdruk
vv = zicht

Weerstations in de omgeving